User: anonymous   Login
Location: NJAA Observatory
(40.6819°N, 74.8979°W)
Time: 02:15:12
(UTC-04:00)
Language:

Cosmos 1633 - Orbit

View from above orbital plane
View from above orbital plane
View from above satellite
View from above satellite

Ground track
Ground track

The orbit data is extracted from the following two-line orbital elements,

1 15592U 85020A   14304.32708162  .00008612  00000-0  39469-3 0  5894
2 15592 082.5430 196.7363 0015887 323.7279 177.0928 15.20212046617958
Epoch (UTC): 31 October 2014 07:50:59
Eccentricity: 0.0015887
inclination: 82.5430°
perigee height: 494 km
apogee height: 516 km
right ascension of ascending node: 196.7363°
argument of perigee: 323.7279°
revolutions per day: 15.20212046
mean anomaly at epoch: 177.0928°
orbit number at epoch: 61795

The dashed part of the orbit path shows where the satellite is in the earth's shadow,  

DLR